This is the latest recevied weather packets stored in our database for station/object SP1BMW-13. If no packets are shown the sender has not sent any weather packets the latest 10 day(s).
| Time | Temp. | Humidity | Pressure | Rain* | Wind** | Luminosity | Snow |
|---|---|---|---|---|---|---|---|
| 1787654917 | 22.78° C | 53% | 1019 hPa | 0 mm | 0 m/s | 679 W/m² | - |
| 1787654857 | 22.78° C | 51% | 1018.7 hPa | 0 mm | 0.89 m/s, 46° | 673 W/m² | - |
| 1787654797 | 22.22° C | 53% | 1018.9 hPa | 0 mm | 0.89 m/s, 51° | 669 W/m² | - |
| 1787654736 | 22.22° C | 55% | 1018.9 hPa | 0 mm | 0.89 m/s, 33° | 664 W/m² | - |
| 1787654677 | 22.22° C | 55% | 1018.9 hPa | 0 mm | 0.89 m/s, 128° | 662 W/m² | - |
| 1787654617 | 22.22° C | 53% | 1019 hPa | 0 mm | 0.45 m/s, 20° | 662 W/m² | - |
| 1787654557 | 22.22° C | 52% | 1018.9 hPa | 0 mm | 0.89 m/s, 57° | 659 W/m² | - |
| 1787654497 | 22.22° C | 52% | 1018.8 hPa | 0 mm | 1.79 m/s, 85° | 658 W/m² | - |
| 1787654436 | 22.22° C | 52% | 1019 hPa | 0 mm | 1.34 m/s, 43° | 657 W/m² | - |
| 1787654377 | 22.22° C | 53% | 1019 hPa | 0 mm | 2.24 m/s, 41° | 658 W/m² | - |
| 1787654317 | 22.22° C | 53% | 1018.9 hPa | 0 mm | 1.79 m/s, 57° | 553 W/m² | - |
| 1787654257 | 22.22° C | 54% | 1019.1 hPa | 0 mm | 1.79 m/s, 29° | 653 W/m² | - |
| 1787654196 | 22.22° C | 53% | 1019 hPa | 0 mm | 1.34 m/s, 43° | 649 W/m² | - |
| 1787654136 | 22.22° C | 53% | 1019 hPa | 0 mm | 2.24 m/s, 28° | 651 W/m² | - |
| 1787654076 | 22.22° C | 52% | 1019.2 hPa | 0 mm | 1.79 m/s, 52° | 610 W/m² | - |
| 1787654017 | 22.22° C | 54% | 1019.1 hPa | 0 mm | 1.34 m/s, 120° | 652 W/m² | - |
| 1787653958 | 22.22° C | 55% | 1018.9 hPa | 0 mm | 0.45 m/s, 63° | 650 W/m² | - |
| 1787653897 | 22.22° C | 54% | 1019 hPa | 0 mm | 1.79 m/s, 21° | 430 W/m² | - |
| 1787653836 | 22.22° C | 53% | 1019.1 hPa | 0 mm | 0.89 m/s, 79° | 640 W/m² | - |
| 1787653777 | 22.22° C | 53% | 1019.2 hPa | 0 mm | 2.24 m/s, 36° | 652 W/m² | - |
| 1787653717 | 22.78° C | 54% | 1019 hPa | 0 mm | 0.45 m/s, 114° | 678 W/m² | - |
| 1787653657 | 22.78° C | 52% | 1019.1 hPa | 0 mm | 0.45 m/s, 65° | 256 W/m² | - |
| 1787653597 | 22.22° C | 53% | 1019.1 hPa | 0 mm | 0.89 m/s, 48° | 689 W/m² | - |
| 1787653541 | 22.22° C | 53% | 1019.2 hPa | 0 mm | 0.89 m/s, 81° | 664 W/m² | - |
| 1787653480 | 22.22° C | 55% | 1019.3 hPa | 0 mm | 1.34 m/s, 137° | 254 W/m² | - |
* Rain latest hour (hover to see other rain measurements)
** Current wind speed in m/s (hover to see current wind gust speed)